STARLINK-3348 (50810 NORAD) Tracking and Keplerian Element Data

This shows tracking and keplerian element data for the satellite.

Feedback or suggestion? Click here.




ElementValue
Catalog50810
NameSTARLINK-3348
Epoch Orbit130
Epoch Day140.58334491
Epoch Year2022
RAAN275.0659
Inclination53.2183
Eccentricity0.0002028
Argument of Perigee46.636
Mean Anonmoly134.8438
Mean Motion15.08822375
Decay Rate-0.00012832
L11 50810U 22001H 22140.58334491 -.00012832 00000+0 -78995-3 0 9993
L22 50810 53.2183 275.0659 0002028 46.6360 134.8438 15.08822375 1305

Live tracking and technical data element details for STARLINK-3348 (NORAD 50810). STARLINK-3348 can be tracked NOW for your location showing map with azimuth and elevation plus other details from your city location.

Track the satellite on the map from your city or location and see movement details for azimuth, elevation, latitude, longitude, range, height, and movement on the map or in text.







IsCatalogInMostPopularTable: catalog: 50810, numindb: 18
Update: records affected: 1



GetName: 50810 STARLINK-3348

Hit Count: updated at: Mon, 23 May 2022 20:18:15 GMT